Enos, Illinois
Current Conditions -  °F | °C
As of 8:55 PM on Tuesday 25 Nov 2014 (Local Time) from K3LF Reporting Station
Clear Clear  
Wind Chill: 20°   Ceiling: Unl
Heat Index: 26°   Visibility: 10mi
Dew Point: 23°   Wind: 5mph
Humidity: 88%   Direction: 130°SE
Pressure: 30.19"   Gusts: NA
Location:  39.2714°N, 89.9463°W
Report Text: K3LF 260255Z AUTO 13004KT 10SM CLR M03/M05 A3019 RMK AO2 T10341052
Loading
Personal Weather Stations






























Interactive Weather Map New forecast layout! Learn more

10-Day Weather Forecast

Advertisements
Track Severe Weather on mobile